HUGOCO Weather Reports


Display with metric or nautical units.
time (UTC)temp
F
wind
direction
speed
MPH
gust
MPH
rain 1hr
in
rain 24hr
in
rain mn
in
humidity
%
barometer
mb
20260510214042 61 359 8.0 14.0 0.00 0.07 0.05 56 1023.1
20260510213542 62 359 7.0 15.0 0.00 0.07 0.05 56 1023.1
20260510213042 61 359 7.0 11.0 0.00 0.07 0.05 56 1023.1
20260510212542 61 359 7.0 11.0 0.00 0.07 0.05 54 1023.1
20260510212042 61 359 6.0 18.0 0.00 0.07 0.05 53 1023.2
20260510211542 61 359 3.0 9.0 0.00 0.07 0.05 53 1023.2
20260510211042 61 359 4.0 4.0 0.00 0.07 0.05 53 1023.3
20260510210542 60 359 7.0 13.0 0.00 0.07 0.05 55 1023.3
20260510210042 60 359 9.0 14.0 0.00 0.07 0.05 59 1023.3
20260510205542 59 359 10.0 15.0 0.00 0.07 0.05 59 1023.5
20260510205042 59 359 7.0 15.0 0.00 0.07 0.05 58 1023.5
20260510204542 59 359 7.0 11.0 0.00 0.07 0.05 58 1023.5
20260510204447 59 359 8.0 11.0 0.00 0.07 0.05 57 1023.5
20260510204042 59 359 8.0 11.0 0.00 0.07 0.05 57 1023.5
20260510203542 59 359 10.0 13.0 0.00 0.07 0.05 60 1023.6
20260510203042 58 359 11.0 14.0 0.00 0.07 0.05 61 1023.5
20260510202542 58 359 11.0 15.0 0.00 0.07 0.05 62 1023.5
20260510202042 58 359 11.0 15.0 0.00 0.07 0.05 62 1023.6
20260510201542 58 359 11.0 15.0 0.00 0.07 0.05 62 1023.7
20260510201042 58 359 10.0 16.0 0.00 0.07 0.05 63 1023.7
20260510200542 58 359 9.0 15.0 0.00 0.07 0.05 64 1023.7
20260510200042 57 359 9.0 14.0 0.00 0.07 0.05 63 1023.8
20260510195542 57 359 9.0 14.0 0.00 0.07 0.05 63 1023.9
20260510195042 57 359 9.0 11.0 0.00 0.07 0.05 63 1023.8
20260510194542 57 359 7.0 13.0 0.00 0.07 0.05 64 1024.0
20260510194042 57 359 7.0 10.0 0.00 0.07 0.05 64 1023.9
20260510193542 57 359 6.0 12.0 0.00 0.07 0.05 65 1023.8
20260510193042 56 359 5.0 9.0 0.00 0.07 0.05 64 1023.8
20260510192542 56 359 7.0 12.0 0.00 0.07 0.05 65 1023.7
20260510192042 56 359 9.0 12.0 0.00 0.07 0.05 65 1023.7
20260510191542 57 359 8.0 15.0 0.00 0.07 0.05 63 1023.8
20260510191042 58 359 6.0 11.0 0.00 0.07 0.05 63 1023.8
20260510190542 57 359 7.0 8.0 0.00 0.07 0.05 61 1023.8
20260510190042 57 359 8.0 12.0 0.00 0.07 0.05 62 1023.9
20260510185542 56 359 8.0 12.0 0.00 0.07 0.05 66 1023.8
20260510185042 56 359 8.0 13.0 0.00 0.07 0.05 65 1023.9
20260510184542 56 359 6.0 11.0 0.00 0.07 0.05 64 1024.0
20260510184448 56 359 6.0 8.0 0.00 0.07 0.05 65 1024.1
20260510184042 56 359 6.0 8.0 0.00 0.07 0.05 65 1024.1
20260510183542 56 359 4.0 11.0 0.00 0.07 0.05 64 1024.0
20260510183042 56 359 3.0 5.0 0.00 0.07 0.05 63 1024.0
20260510182542 56 359 4.0 8.0 0.00 0.07 0.05 63 1024.1
20260510182042 56 359 5.0 8.0 0.00 0.07 0.05 63 1024.1
20260510181542 56 359 4.0 12.0 0.00 0.07 0.05 65 1024.1
20260510181042 56 359 4.0 12.0 0.00 0.07 0.05 66 1024.3
20260510180542 55 359 5.0 10.0 0.00 0.07 0.05 67 1024.3
20260510180042 54 359 4.0 10.0 0.00 0.07 0.05 68 1024.2
20260510175542 54 359 4.0 6.0 0.00 0.07 0.05 68 1024.3
20260510175042 54 359 5.0 8.0 0.00 0.07 0.05 68 1024.2
20260510174542 55 359 5.0 9.0 0.00 0.07 0.05 68 1024.2
20260510174042 55 359 3.0 8.0 0.00 0.07 0.05 68 1024.2
20260510173542 55 359 2.0 9.0 0.00 0.07 0.05 67 1024.2
20260510173042 54 359 2.0 4.0 0.00 0.07 0.05 69 1024.1
20260510172542 54 359 4.0 8.0 0.00 0.07 0.05 69 1024.0
20260510172042 54 359 4.0 6.0 0.00 0.07 0.05 70 1024.0
20260510171542 54 359 3.0 5.0 0.00 0.07 0.05 72 1024.1
20260510171042 54 359 4.0 4.0 0.00 0.07 0.05 72 1024.0
20260510170542 53 359 4.0 4.0 0.00 0.07 0.05 71 1024.1
20260510170042 54 359 3.0 6.0 0.00 0.07 0.05 73 1024.2
20260510165542 53 359 4.0 5.0 0.00 0.07 0.05 72 1024.1
20260510165042 53 359 3.0 9.0 0.00 0.07 0.05 73 1024.2
20260510164542 52 359 2.0 5.0 0.00 0.07 0.05 75 1024.1
20260510164042 52 359 3.0 6.0 0.00 0.07 0.05 76 1024.1
20260510163542 52 359 3.0 6.0 0.00 0.07 0.05 75 1024.1
20260510163042 52 359 3.0 4.0 0.00 0.07 0.05 78 1024.1
20260510162542 51 359 3.0 4.0 0.00 0.07 0.05 78 1024.1
20260510162042 50 359 3.0 8.0 0.00 0.07 0.05 78 1024.2
20260510161542 50 359 2.0 4.0 0.00 0.07 0.05 78 1024.1
20260510161042 50 359 1.0 2.0 0.00 0.07 0.05 80 1024.1
20260510160542 49 359 2.0 4.0 0.00 0.07 0.05 81 1024.1
20260510160042 49 359 2.0 6.0 0.00 0.07 0.05 81 1024.0
20260510155542 49 359 4.0 5.0 0.00 0.07 0.05 81 1024.0
20260510155042 49 359 4.0 8.0 0.00 0.07 0.05 82 1024.0
20260510154543 49 359 4.0 6.0 0.00 0.07 0.05 83 1024.1
20260510154042 49 359 4.0 8.0 0.00 0.07 0.05 84 1024.0
20260510153542 48 359 5.0 8.0 0.00 0.07 0.05 84 1024.0
20260510153043 48 359 5.0 8.0 0.00 0.07 0.05 84 1023.9
20260510152542 48 359 6.0 9.0 0.00 0.07 0.05 84 1023.9
20260510152043 48 359 6.0 10.0 0.00 0.07 0.05 85 1023.9
20260510151543 47 359 7.0 10.0 0.00 0.07 0.05 85 1023.9
20260510151449 47 359 7.0 10.0 0.00 0.07 0.05 85 1023.9
20260510151043 47 359 7.0 10.0 0.00 0.07 0.05 85 1023.9
20260510150543 47 359 7.0 10.0 0.00 0.07 0.05 87 1023.7
20260510150043 47 359 7.0 10.0 0.00 0.07 0.05 87 1023.8
20260510145543 47 359 8.0 10.0 0.00 0.07 0.05 87 1023.8
20260510145043 47 359 8.0 11.0 0.00 0.07 0.05 87 1023.7
20260510144543 47 359 8.0 10.0 0.00 0.07 0.05 88 1023.6
20260510144043 46 359 9.0 12.0 0.00 0.07 0.05 88 1023.7
20260510143543 47 359 8.0 12.0 0.00 0.07 0.05 89 1023.8
20260510143043 46 359 7.0 9.0 0.00 0.07 0.05 89 1023.6
20260510142543 46 359 7.0 9.0 0.00 0.07 0.05 90 1023.6
20260510142043 46 359 8.0 9.0 0.00 0.07 0.05 89 1023.6
20260510141543 46 359 9.0 10.0 0.00 0.07 0.05 89 1023.5
20260510141043 46 359 9.0 11.0 0.00 0.07 0.05 90 1023.5
20260510140543 46 359 10.0 12.0 0.00 0.07 0.05 90 1023.5
20260510140043 46 359 11.0 13.0 0.00 0.07 0.05 90 1023.4
20260510135543 46 359 12.0 13.0 0.00 0.07 0.05 90 1023.2
20260510135043 46 359 12.0 15.0 0.00 0.07 0.05 90 1023.3
20260510134543 46 359 12.0 15.0 0.00 0.07 0.05 90 1023.2
20260510134043 46 359 11.0 13.0 0.00 0.07 0.05 90 1023.3
20260510133543 46 359 11.0 13.0 0.00 0.07 0.05 89 1023.2
20260510133043 46 359 9.0 11.0 0.00 0.07 0.05 90 1023.3
20260510132543 46 359 9.0 11.0 0.00 0.07 0.05 90 1023.2
20260510132043 46 359 9.0 12.0 0.00 0.07 0.05 90 1023.1
20260510131543 46 359 8.0 12.0 0.00 0.07 0.05 90 1023.0
20260510131043 46 359 8.0 9.0 0.00 0.07 0.05 90 1022.9
20260510130543 46 359 8.0 9.0 0.00 0.07 0.05 90 1022.9
20260510130043 46 359 9.0 10.0 0.00 0.07 0.05 90 1022.8
20260510125543 46 359 9.0 11.0 0.00 0.07 0.05 90 1022.8
20260510125043 45 359 9.0 11.0 0.00 0.07 0.05 90 1022.7
20260510124543 45 359 9.0 11.0 0.00 0.07 0.05 91 1022.7
20260510124043 45 359 9.0 10.0 0.00 0.07 0.05 91 1022.6
20260510123543 45 359 8.0 11.0 0.00 0.07 0.05 91 1022.5
20260510123043 45 359 8.0 10.0 0.00 0.07 0.05 91 1022.6
20260510122543 45 359 8.0 11.0 0.00 0.07 0.05 91 1022.6
20260510122043 45 359 8.0 11.0 0.00 0.07 0.05 91 1022.5
20260510121543 45 359 9.0 12.0 0.00 0.07 0.05 91 1022.4
20260510121043 45 359 9.0 12.0 0.00 0.07 0.05 91 1022.3
20260510120543 45 359 11.0 12.0 0.00 0.07 0.05 91 1022.2
20260510120043 45 359 12.0 13.0 0.00 0.07 0.05 91 1022.2
20260510115543 45 359 11.0 14.0 0.00 0.07 0.05 91 1022.2
20260510115043 45 359 11.0 14.0 0.00 0.07 0.05 92 1022.0
20260510114543 45 359 10.0 12.0 0.00 0.07 0.05 92 1022.1
20260510114043 45 359 11.0 13.0 0.00 0.07 0.05 92 1022.1
20260510113543 45 359 11.0 14.0 0.00 0.07 0.05 91 1022.0
20260510113043 45 359 10.0 13.0 0.00 0.07 0.05 92 1022.1
20260510112543 45 359 10.0 12.0 0.00 0.07 0.05 91 1022.0
20260510112043 45 359 11.0 12.0 0.00 0.07 0.05 91 1021.7
20260510111543 45 359 11.0 14.0 0.00 0.07 0.05 91 1021.9
20260510111043 45 359 9.0 13.0 0.00 0.07 0.05 91 1021.6
20260510110543 45 359 7.0 10.0 0.00 0.07 0.05 91 1021.7
20260510110043 45 359 7.0 9.0 0.00 0.07 0.05 91 1021.7
20260510105543 45 359 7.0 8.0 0.00 0.07 0.05 91 1021.5
20260510105043 45 359 7.0 9.0 0.00 0.07 0.05 91 1021.5
20260510104543 45 359 7.0 9.0 0.00 0.07 0.05 91 1021.4
20260510104043 45 359 8.0 10.0 0.00 0.07 0.05 91 1021.5
20260510103543 45 359 11.0 12.0 0.00 0.07 0.05 91 1021.2
20260510103043 45 359 12.0 14.0 0.00 0.07 0.05 91 1021.1
20260510102543 45 359 11.0 14.0 0.00 0.07 0.05 91 1021.0
20260510102043 45 359 10.0 13.0 0.00 0.07 0.05 92 1021.1
20260510101543 45 359 10.0 11.0 0.00 0.07 0.05 92 1021.1
20260510101043 46 359 10.0 12.0 0.00 0.07 0.05 92 1021.2
20260510100543 45 359 10.0 12.0 0.00 0.07 0.05 92 1021.2
20260510100043 45 359 10.0 13.0 0.00 0.07 0.05 92 1021.3
20260510095543 45 359 10.0 11.0 0.00 0.07 0.05 92 1021.2
20260510095043 46 359 11.0 14.0 0.00 0.07 0.05 92 1021.0
20260510094543 46 359 11.0 13.0 0.00 0.07 0.05 92 1020.8
20260510094043 46 359 11.0 13.0 0.00 0.07 0.05 92 1021.1
20260510093543 46 359 11.0 13.0 0.00 0.07 0.05 92 1021.0
20260510093043 46 359 12.0 14.0 0.01 0.07 0.05 92 1021.0
20260510092543 46 359 12.0 15.0 0.01 0.07 0.05 92 1021.0
20260510092043 46 359 12.0 13.0 0.01 0.07 0.05 92 1020.9
20260510091543 46 359 12.0 14.0 0.01 0.07 0.05 92 1020.8
20260510091043 46 359 12.0 14.0 0.01 0.07 0.05 92 1020.7
20260510090543 46 359 12.0 15.0 0.02 0.07 0.05 92 1020.8
20260510090043 46 359 12.0 15.0 0.04 0.07 0.05 92 1020.9
20260510085543 46 359 12.0 14.0 0.05 0.07 0.05 92 1020.9
20260510085043 46 359 12.0 14.0 0.05 0.07 0.05 92 1020.9
20260510084543 46 359 12.0 15.0 0.05 0.07 0.05 91 1020.5
20260510084159 46 359 12.0 14.0 0.05 0.07 0.05 91 1020.5
20260510084043 46 359 12.0 14.0 0.05 0.07 0.05 91 1020.5
20260510083543 46 359 12.0 15.0 0.05 0.07 0.05 91 1020.5
20260510083043 46 359 13.0 16.0 0.04 0.06 0.04 91 1020.3
20260510082543 46 359 12.0 15.0 0.04 0.06 0.04 91 1020.5
20260510082043 46 359 12.0 13.0 0.04 0.06 0.04 90 1020.6
20260510081543 46 359 12.0 15.0 0.04 0.06 0.04 90 1020.7
20260510081043 47 359 12.0 14.0 0.04 0.06 0.04 90 1020.5
20260510080543 47 359 13.0 18.0 0.03 0.05 0.03 90 1020.4
20260510080043 47 359 11.0 15.0 0.01 0.03 0.01 90 1020.1
20260510075543 47 359 11.0 13.0 0.00 0.02 0.00 90 1021.5
20260510075043 47 359 12.0 15.0 0.00 0.02 0.00 90 1021.3
20260510074544 47 359 12.0 16.0 0.00 0.02 0.00 90 1020.8
20260510074044 47 359 12.0 15.0 0.00 0.02 0.00 90 1020.5
20260510073544 47 359 13.0 16.0 0.00 0.02 0.00 90 1020.2
20260510073044 47 359 14.0 17.0 0.00 0.02 0.00 90 1020.1
20260510072544 47 359 14.0 18.0 0.00 0.02 0.00 91 1019.8
20260510072044 47 359 14.0 17.0 0.00 0.02 0.00 91 1019.8
20260510071544 47 359 14.0 17.0 0.00 0.02 0.00 91 1019.8
20260510071044 47 359 14.0 16.0 0.00 0.02 0.00 90 1019.9
20260510070544 47 359 14.0 16.0 0.00 0.02 0.00 90 1019.9
20260510070044 47 359 14.0 17.0 0.00 0.02 0.00 90 1019.7
20260510065544 46 359 14.0 17.0 0.00 0.02 0.00 90 1019.6
20260510065044 47 359 14.0 17.0 0.00 0.02 0.00 90 1019.7
20260510064544 46 359 14.0 19.0 0.00 0.02 0.00 90 1019.5
20260510064044 46 359 14.0 16.0 0.00 0.02 0.00 89 1019.2
20260510063544 46 359 14.0 17.0 0.00 0.02 0.00 89 1018.9
20260510063044 46 359 13.0 16.0 0.00 0.02 0.00 89 1018.7
20260510062544 46 359 12.0 15.0 0.00 0.02 0.02 88 1018.7
20260510062044 46 359 8.0 15.0 0.00 0.02 0.02 87 1018.7
20260510061544 46 359 6.0 8.0 0.00 0.02 0.02 85 1018.5
20260510061044 47 359 7.0 11.0 0.00 0.02 0.02 82 1018.3
20260510060544 48 359 8.0 12.0 0.00 0.02 0.02 80 1018.4
20260510060044 47 359 7.0 10.0 0.00 0.02 0.02 80 1018.3
20260510055544 47 359 7.0 10.0 0.00 0.02 0.02 80 1018.2
20260510055044 47 359 8.0 11.0 0.01 0.02 0.02 80 1018.0
20260510054544 47 359 11.0 13.0 0.01 0.02 0.02 80 1017.7
20260510054044 47 359 13.0 14.0 0.01 0.02 0.02 80 1017.9
20260510053544 48 359 15.0 16.0 0.01 0.02 0.02 78 1017.7
20260510053044 48 359 16.0 18.0 0.02 0.02 0.02 78 1017.6
20260510052544 49 359 16.0 19.0 0.02 0.02 0.02 77 1017.4
20260510052044 49 359 16.0 18.0 0.02 0.02 0.02 77 1017.5
20260510051544 49 359 18.0 21.0 0.02 0.02 0.02 77 1017.1
20260510051321 49 359 20.0 23.0 0.02 0.02 0.02 76 1016.9
20260510051044 49 359 20.0 23.0 0.02 0.02 0.02 76 1016.9
20260510050544 48 359 21.0 24.0 0.02 0.02 0.02 77 1016.9
20260510050044 48 359 23.0 24.0 0.02 0.02 0.02 78 1016.7
20260510045856 49 359 25.0 30.0 0.02 0.02 0.02 76 1016.8
20260510045544 49 359 25.0 30.0 0.02 0.02 0.02 76 1016.8
20260510045044 50 359 26.0 31.0 0.01 0.01 0.01 75 1016.8
20260510044544 50 359 29.0 31.0 0.01 0.01 0.01 74 1016.6
20260510044044 49 359 33.0 41.0 0.01 0.01 0.01 76 1016.7
20260510043544 50 359 36.0 41.0 0.01 0.01 0.01 76 1016.7
20260510043044 48 359 39.0 47.0 0.00 0.00 0.00 80 1016.8
20260510042544 48 359 36.0 46.0 0.00 0.00 0.00 80 1017.9
20260510042044 48 359 36.0 41.0 0.00 0.00 0.00 79 1017.8
20260510041544 49 359 37.0 52.0 0.00 0.00 0.00 76 1018.0
20260510041044 49 359 36.0 48.0 0.00 0.00 0.00 73 1018.1
20260510040544 49 359 35.0 50.0 0.00 0.00 0.00 71 1018.1
20260510040044 51 359 35.0 42.0 0.00 0.00 0.00 67 1018.1
20260510035544 52 359 36.0 49.0 0.00 0.00 0.00 65 1017.5
20260510035044 52 359 41.0 56.0 0.00 0.00 0.00 65 1016.4
20260510034544 52 359 41.0 57.0 0.00 0.00 0.00 65 1016.4
20260510034044 53 359 41.0 48.0 0.00 0.00 0.00 64 1016.2
20260510033544 53 359 40.0 61.0 0.00 0.00 0.00 64 1017.0
20260510033044 52 359 33.0 50.0 0.00 0.00 0.00 66 1017.6
20260510032648 53 359 28.0 35.0 0.00 0.00 0.00 63 1017.5
20260510032544 53 359 28.0 35.0 0.00 0.00 0.00 63 1017.5
20260510032044 53 359 28.0 35.0 0.00 0.00 0.00 61 1015.9
20260510031544 54 359 29.0 35.0 0.00 0.00 0.00 59 1014.8
20260510031044 56 359 23.0 41.0 0.00 0.00 0.00 55 1014.3
20260510030544 58 359 14.0 25.0 0.00 0.00 0.00 56 1014.0
20260510030044 58 359 14.0 19.0 0.00 0.00 0.00 55 1013.5
20260510025544 59 359 17.0 18.0 0.00 0.00 0.00 54 1013.2
20260510025044 59 359 18.0 24.0 0.00 0.00 0.00 53 1012.9
20260510024544 60 359 18.0 24.0 0.00 0.00 0.00 52 1012.7
20260510024044 60 359 20.0 24.0 0.00 0.00 0.00 51 1012.2
20260510023544 61 359 19.0 24.0 0.00 0.00 0.00 49 1011.9
20260510023044 62 359 13.0 22.0 0.00 0.00 0.00 48 1011.9
20260510022544 62 359 6.0 19.0 0.00 0.00 0.00 47 1011.9
20260510022044 62 359 5.0 5.0 0.00 0.00 0.00 45 1011.8
20260510021544 63 359 9.0 10.0 0.00 0.00 0.00 44 1011.7
20260510021044 63 359 11.0 13.0 0.00 0.00 0.00 43 1011.5
20260510020544 65 359 12.0 15.0 0.00 0.00 0.00 40 1011.5
20260510020044 65 359 11.0 13.0 0.00 0.00 0.00 39 1011.3
20260510015544 65 359 12.0 13.0 0.00 0.00 0.00 39 1011.2
20260510015044 66 359 13.0 15.0 0.00 0.00 0.00 38 1011.1
20260510014544 66 359 12.0 18.0 0.00 0.00 0.00 37 1011.0
20260510014044 67 359 10.0 12.0 0.00 0.00 0.00 35 1010.9
20260510013544 66 359 10.0 13.0 0.00 0.00 0.00 36 1010.8
20260510013044 67 359 10.0 11.0 0.00 0.00 0.00 37 1010.6
20260510012544 68 359 10.0 13.0 0.00 0.00 0.00 35 1010.5
20260510012044 68 359 10.0 13.0 0.00 0.00 0.00 32 1010.4
20260510011544 68 359 9.0 11.0 0.00 0.00 0.00 32 1010.3
20260510011044 69 359 9.0 10.0 0.00 0.00 0.00 33 1010.3
20260510010544 69 359 10.0 11.0 0.00 0.00 0.00 31 1010.1
20260510010044 69 359 11.0 12.0 0.00 0.00 0.00 31 1010.2
20260510005544 69 359 9.0 12.0 0.00 0.00 0.00 31 1010.1
20260510005044 69 359 8.0 11.0 0.00 0.00 0.00 29 1010.0
20260510004544 70 359 8.0 11.0 0.00 0.00 0.00 29 1010.1
20260510004044 70 359 7.0 10.0 0.00 0.00 0.00 28 1010.0
20260510003544 70 359 7.0 9.0 0.00 0.00 0.00 27 1010.0
20260510003044 70 359 8.0 9.0 0.00 0.00 0.00 27 1010.1
20260510002545 70 359 9.0 10.0 0.00 0.00 0.00 28 1010.0
20260510002044 70 359 10.0 11.0 0.00 0.00 0.00 27 1010.1
20260510001544 70 359 9.0 13.0 0.00 0.00 0.00 27 1010.2
20260510001045 70 359 9.0 11.0 0.00 0.00 0.00 28 1010.2
20260510000545 71 359 7.0 11.0 0.00 0.00 0.00 27 1010.5
20260510000045 71 359 6.0 9.0 0.00 0.00 0.00 27 1010.5
20260509235859 71 359 6.0 9.0 0.00 0.00 0.00 27 1010.4
20260509235545 71 359 6.0 9.0 0.00 0.00 0.00 27 1010.4
20260509235045 71 359 8.0 11.0 0.00 0.00 0.00 27 1010.3
20260509234545 70 359 10.0 12.0 0.00 0.00 0.00 27 1010.2
20260509234045 70 359 10.0 12.0 0.00 0.00 0.00 27 1010.1
20260509233545 70 359 13.0 16.0 0.00 0.00 0.00 27 1010.2
20260509233045 70 359 14.0 19.0 0.00 0.00 0.00 27 1009.9
20260509232545 70 359 14.0 20.0 0.00 0.00 0.00 27 1009.8
20260509232045 71 359 14.0 18.0 0.00 0.00 0.00 26 1009.8
20260509231545 71 359 15.0 20.0 0.00 0.00 0.00 27 1009.6
20260509231045 71 359 16.0 21.0 0.00 0.00 0.00 26 1009.7
20260509230545 71 359 16.0 21.0 0.00 0.00 0.00 26 1009.5
20260509230045 71 359 17.0 20.0 0.00 0.00 0.00 27 1009.5
20260509225545 71 359 17.0 23.0 0.00 0.00 0.00 27 1009.4
20260509225045 71 359 14.0 20.0 0.00 0.00 0.00 26 1009.5
20260509224545 72 359 14.0 18.0 0.00 0.00 0.00 27 1009.4
20260509224045 71 359 15.0 20.0 0.00 0.00 0.00 27 1009.4
20260509223545 71 359 15.0 18.0 0.00 0.00 0.00 26 1009.5
20260509223045 71 359 15.0 21.0 0.00 0.00 0.00 26 1009.5
20260509222545 71 359 15.0 23.0 0.00 0.00 0.00 27 1009.5
20260509222045 71 359 15.0 22.0 0.00 0.00 0.00 26 1009.5
20260509221545 71 359 16.0 21.0 0.00 0.00 0.00 26 1009.4
20260509221045 71 359 15.0 23.0 0.00 0.00 0.00 25 1009.5
20260509220545 71 359 15.0 21.0 0.00 0.00 0.00 27 1009.3
20260509220045 71 359 17.0 26.0 0.00 0.00 0.00 26 1009.5
20260509215545 71 359 17.0 21.0 0.00 0.00 0.00 27 1009.5
20260509215045 71 359 15.0 27.0 0.00 0.00 0.00 26 1009.5
20260509214545 72 359 13.0 20.0 0.00 0.00 0.00 26 1009.6